Location: Bittelbronn
(48.4454°N, 8.5870°E)
Time: 17:33:32
(UTC+00:00)

CZ-6A DEB - Visible Passes

Search period start: 07 October 2024 00:00
Search period end: 17 October 2024 00:00
Orbit: 820 x 882 km, 98.8° (Epoch: 07 October)

Date Brightness Start Highest point End Pass type
(mag) Time Alt. Az. Time Alt. Az. Time Alt. Az.
07 Oct ? 04:45:57 10° NNE 04:51:04 34° E 04:56:07 10° SSE visible
07 Oct ? 17:59:10 10° SW 18:02:45 17° W 18:06:23 10° NW visible
08 Oct ? 04:34:24 10° NE 04:39:11 27° E 04:43:55 10° SSE visible
08 Oct ? 17:46:38 10° SW 17:50:49 21° W 17:55:03 10° NW visible
09 Oct ? 04:22:55 10° NE 04:27:17 22° E 04:31:34 10° SE visible
09 Oct ? 17:34:15 10° SSW 17:38:52 26° W 17:43:34 10° NW visible
10 Oct ? 04:11:32 10° NE 04:15:18 18° E 04:19:02 10° SE visible
10 Oct ? 17:21:59 10° SSW 17:26:56 32° W 17:31:59 10° NNW visible
11 Oct ? 04:00:20 10° NE 04:03:18 14° E 04:06:15 10° ESE visible
11 Oct ? 17:09:48 10° SSW 17:15:00 40° W 17:20:19 10° NNW visible
12 Oct ? 03:49:38 10° ENE 03:51:15 11° E 03:52:50 10° E visible
14 Oct ? 05:03:41 10° NNE 05:09:07 46° E 05:14:28 10° S visible
14 Oct ? 18:18:40 10° WSW 18:20:53 12° W 18:23:07 10° WNW visible
15 Oct ? 04:51:54 10° NNE 04:57:08 37° E 05:02:16 10° SSE visible
15 Oct ? 18:05:30 10° WSW 18:08:46 16° W 18:12:05 10° NW visible
16 Oct ? 04:40:11 10° NNE 04:45:06 30° E 04:49:57 10° SSE visible
16 Oct ? 17:52:41 10° SW 17:56:39 20° W 18:00:40 10° NW visible
